Koyuk, AK

5:54 PM AKDT on April 28, 2017 (GMT -0800)
Koyuk

Weather History for PAKK - June, 2014

Change the Weather History Date:

Thursday, June 19, 2014

  Actual Average Record
Temperature  
Mean Temperature 49 °F -  
Max Temperature 59 °F 59 °F 89 °F (2013)
Min Temperature 39 °F 44 °F 39 °F (2012)
Degree Days  
Heating Degree Days 16    
Moisture  
Dew Point 39 °F    
Average Humidity 70    
Maximum Humidity 82    
Minimum Humidity 48    
Precipitation  
Precipitation 0.00 in - - ()
Sea Level Pressure  
Sea Level Pressure 29.78 in    
Wind  
Wind Speed 8 mph (WNW)    
Max Wind Speed 16 mph    
Max Gust Speed 25 mph    
Visibility 10 miles    
Events      
Averages and records for this station are not official NWS values.
T = Trace of Precipitation, MM = Missing Value Source: NWS Daily Summary

Daily Weather History Graph

Daily Weather History Graph

Search for Another Location

Airport or City:

Trip Planner

Search our weather history database for the weather conditions in past years. The results will help you decide how hot, cold, wet, or windy it might be!

Date:

Astronomy

Jun. 19, 2014 Rise Set
Actual Time 3:48 AM AKDT 1:44 AM AKDT
Civil Twilight Sun does not set Sun does not set
Nautical Twilight Sun does not set Sun does not set
Astronomical Twilight Sun does not set Sun does not set
Moon 2:27 AM AKDT (6/19) 3:11 PM AKDT (6/19)
Length of Visible Light 24h 00m
Length of Day
21h 56m
Waning Gibbous, 50% of the Moon is Illuminated
Jun 19
Waning Gibbous
Jun 27
New
Jul 5
First Quarter
Jul 12
Full
Jul 18
Last Quarter

Hourly Weather History & Observations

Time (AKDT) Temp. Windchill Dew Point Humidity Pressure Visibility Wind Dir Wind Speed Gust Speed Precip Events Conditions
12:16 AM 48.2 °F - 39.2 °F 71% 29.67 in 10.0 mi NNW 11.5 mph 21.9 mph N/A   Clear
12:36 AM 48.2 °F - 37.4 °F 66% 29.68 in 10.0 mi NNW 12.7 mph 18.4 mph N/A   Clear
12:56 AM 46.4 °F 41.1 °F 37.4 °F 71% 29.68 in 10.0 mi NNW 11.5 mph 18.4 mph N/A   Clear
1:16 AM 46.4 °F 42.4 °F 37.4 °F 71% 29.69 in 10.0 mi North 8.1 mph - N/A   Clear
1:36 AM 46.4 °F 43.5 °F 37.4 °F 71% 29.70 in 10.0 mi NNW 5.8 mph - N/A   Clear
2:16 AM 44.6 °F - 35.6 °F 71% 29.72 in 10.0 mi Calm Calm - N/A   Clear
2:36 AM 42.8 °F 38.0 °F 35.6 °F 76% 29.72 in 10.0 mi West 8.1 mph - N/A   Clear
2:56 AM 42.8 °F - 35.6 °F 76% 29.72 in 10.0 mi Calm Calm - N/A   Clear
3:16 AM 42.8 °F 40.1 °F 35.6 °F 76% 29.73 in 10.0 mi North 4.6 mph - N/A   Clear
3:36 AM 41.0 °F 35.2 °F 33.8 °F 76% 29.74 in 10.0 mi NW 9.2 mph - N/A   Clear
3:56 AM 39.2 °F 34.2 °F 33.8 °F 81% 29.73 in 10.0 mi NW 6.9 mph - N/A   Clear
4:16 AM 39.2 °F 32.5 °F 33.8 °F 81% 29.74 in 10.0 mi NNW 10.4 mph - N/A   Clear
4:36 AM 39.2 °F 32.5 °F 33.8 °F 81% 29.74 in 10.0 mi NW 10.4 mph - N/A   Clear
4:56 AM 39.2 °F 31.6 °F 33.8 °F 81% 29.73 in 10.0 mi NW 12.7 mph 17.3 mph N/A   Clear
5:16 AM 39.2 °F 30.5 °F 33.8 °F 81% 29.73 in 10.0 mi NNW 16.1 mph 23.0 mph N/A   Clear
5:36 AM 39.2 °F 30.5 °F 33.8 °F 81% 29.74 in 10.0 mi NNW 16.1 mph 24.2 mph N/A   Clear
5:56 AM 39.2 °F 31.2 °F 33.8 °F 81% 29.74 in 10.0 mi NNW 13.8 mph 25.3 mph N/A   Clear
6:16 AM 39.2 °F 31.2 °F 33.8 °F 81% 29.75 in 10.0 mi NNW 13.8 mph 20.7 mph N/A   Clear
6:56 AM 39.2 °F 32.0 °F 33.8 °F 81% 29.75 in 10.0 mi North 11.5 mph 19.6 mph N/A   Clear
7:16 AM 39.2 °F - 33.8 °F 81% 29.77 in 10.0 mi Calm Calm - N/A   Clear
7:36 AM 41.0 °F 39.0 °F 33.8 °F 76% 29.77 in 10.0 mi West 3.5 mph - N/A   Clear
7:56 AM 41.0 °F 37.1 °F 33.8 °F 76% 29.78 in 10.0 mi WNW 5.8 mph - N/A   Clear
8:16 AM 41.0 °F 39.0 °F 33.8 °F 76% 29.79 in 10.0 mi North 3.5 mph - N/A   Clear
8:36 AM 41.0 °F 36.4 °F 33.8 °F 76% 29.79 in 10.0 mi NNW 6.9 mph - N/A   Clear
8:56 AM 42.8 °F 40.1 °F 35.6 °F 76% 29.79 in 10.0 mi NNW 4.6 mph - N/A   Scattered Clouds
9:16 AM 42.8 °F 38.6 °F 35.6 °F 76% 29.79 in 10.0 mi NNW 6.9 mph - N/A   Overcast
9:36 AM 44.6 °F 43.1 °F 35.6 °F 71% 29.80 in 10.0 mi NNW 3.5 mph - N/A   Mostly Cloudy
9:56 AM 44.6 °F 40.7 °F 35.6 °F 71% 29.80 in 10.0 mi NNW 6.9 mph - N/A   Mostly Cloudy
10:16 AM 44.6 °F 42.2 °F 37.4 °F 76% 29.80 in 10.0 mi NW 4.6 mph - N/A   Mostly Cloudy
10:36 AM 46.4 °F 42.4 °F 37.4 °F 71% 29.80 in 10.0 mi NNW 8.1 mph - N/A   Partly Cloudy
10:56 AM 48.2 °F - 37.4 °F 66% 29.80 in 10.0 mi NNW 8.1 mph - N/A   Clear
11:16 AM 48.2 °F - 37.4 °F 66% 29.80 in 10.0 mi North 5.8 mph - N/A   Clear
11:36 AM 50.0 °F - 37.4 °F 62% 29.80 in 10.0 mi NNW 6.9 mph - N/A   Clear
11:56 AM 50.0 °F - 37.4 °F 62% 29.81 in 10.0 mi NNW 6.9 mph - N/A   Clear
12:16 PM 50.0 °F - 37.4 °F 62% 29.81 in 10.0 mi North 6.9 mph - N/A   Clear
12:36 PM 53.6 °F - 39.2 °F 58% 29.80 in 10.0 mi NNW 5.8 mph - N/A   Clear
12:56 PM 53.6 °F - 39.2 °F 58% 29.80 in 10.0 mi SSE 3.5 mph - N/A   Clear
1:16 PM 55.4 °F - 39.2 °F 54% 29.81 in 10.0 mi NW 4.6 mph - N/A   Clear
1:36 PM 55.4 °F - 37.4 °F 51% 29.80 in 10.0 mi Calm Calm - N/A   Clear
1:56 PM 55.4 °F - 37.4 °F 51% 29.80 in 10.0 mi WNW 6.9 mph - N/A   Clear
2:16 PM 55.4 °F - 39.2 °F 54% 29.80 in 10.0 mi WNW 5.8 mph - N/A   Clear
2:36 PM 59.0 °F - 39.2 °F 48% 29.80 in 10.0 mi SW 5.8 mph - N/A   Clear
2:56 PM 55.4 °F - 41.0 °F 58% 29.80 in 10.0 mi SSW 9.2 mph - N/A   Clear
3:16 PM 53.6 °F - 42.8 °F 67% 29.81 in 10.0 mi SSW 9.2 mph - N/A   Clear
3:36 PM 53.6 °F - 42.8 °F 67% 29.81 in 10.0 mi South 11.5 mph - N/A   Clear
3:56 PM 53.6 °F - 42.8 °F 67% 29.81 in 10.0 mi SSW 10.4 mph - N/A   Clear
4:16 PM 53.6 °F - 42.8 °F 67% 29.81 in 10.0 mi SSW 10.4 mph - N/A   Clear
4:36 PM 53.6 °F - 42.8 °F 67% 29.80 in 10.0 mi SSW 9.2 mph - N/A   Clear
4:56 PM 55.4 °F - 42.8 °F 63% 29.80 in 10.0 mi SSW 11.5 mph - N/A   Clear
5:16 PM 55.4 °F - 42.8 °F 63% 29.80 in 10.0 mi SSW 10.4 mph - N/A   Clear
5:36 PM 55.4 °F - 44.6 °F 67% 29.79 in 10.0 mi SSW 11.5 mph 16.1 mph N/A   Clear
5:56 PM 55.4 °F - 42.8 °F 63% 29.79 in 10.0 mi SSW 10.4 mph - N/A   Partly Cloudy
6:16 PM 55.4 °F - 44.6 °F 67% 29.79 in 10.0 mi SSW 10.4 mph - N/A   Partly Cloudy
6:36 PM 55.4 °F - 44.6 °F 67% 29.79 in 10.0 mi South 9.2 mph - N/A   Mostly Cloudy
6:56 PM 55.4 °F - 44.6 °F 67% 29.78 in 10.0 mi SSW 9.2 mph - N/A   Mostly Cloudy
7:16 PM 55.4 °F - 44.6 °F 67% 29.78 in 10.0 mi SSW 10.4 mph - N/A   Overcast
7:36 PM 55.4 °F - 44.6 °F 67% 29.79 in 10.0 mi SSW 10.4 mph 16.1 mph N/A   Overcast
7:56 PM 55.4 °F - 46.4 °F 72% 29.79 in 10.0 mi SSW 8.1 mph - N/A   Overcast
8:16 PM 55.4 °F - 46.4 °F 72% 29.79 in 10.0 mi South 8.1 mph - N/A   Overcast
8:36 PM 55.4 °F - 46.4 °F 72% 29.79 in 10.0 mi South 8.1 mph - N/A   Overcast
8:56 PM 55.4 °F - 46.4 °F 72% 29.79 in 10.0 mi SSW 5.8 mph - N/A   Overcast
9:16 PM 55.4 °F - 46.4 °F 72% 29.79 in 10.0 mi South 8.1 mph - N/A   Overcast
9:36 PM 55.4 °F - 46.4 °F 72% 29.79 in 10.0 mi South 6.9 mph - N/A   Overcast
9:56 PM 55.4 °F - 48.2 °F 77% 29.79 in 10.0 mi SSW 5.8 mph - N/A   Overcast
10:16 PM 55.4 °F - 48.2 °F 77% 29.79 in 10.0 mi SSW 4.6 mph - N/A   Overcast
10:36 PM 53.6 °F - 48.2 °F 82% 29.80 in 10.0 mi Calm Calm - N/A   Mostly Cloudy
10:56 PM 53.6 °F - 42.8 °F 67% 29.80 in 10.0 mi NNE 4.6 mph - N/A   Mostly Cloudy
11:16 PM 53.6 °F - 42.8 °F 67% 29.80 in 10.0 mi North 4.6 mph - N/A   Overcast
11:36 PM 53.6 °F - 42.8 °F 67% 29.81 in 10.0 mi North 3.5 mph - N/A   Overcast
11:56 PM 53.6 °F - 41.0 °F 62% 29.81 in 10.0 mi North 4.6 mph - N/A   Overcast